Le nostre stazioni meteo in Italia

Pubblicità
Il mio iltempo24.it
Achnagart, Gran Bretagna (99191): Temperatura & dewpoint: 13.06.2019 00:00:00 - 19.06.2019 00:00:00 (BST)Achnagart, Gran Bretagna (99191): precipitazioni: 13.06.2019 00:00:00 - 19.06.2019 00:00:00 (BST)
Data & Tempo tt [°C] td [°C] rr [mm]
19.06.2019 00:00:00 11,8 9,1 0,0
18.06.2019 23:00:00 11,2 9,8 0,2
18.06.2019 22:00:00 11,5 9,4 0,4
18.06.2019 21:00:00 12,8 8,5 0,0
18.06.2019 20:00:00 12,5 9,1 0,0
18.06.2019 19:00:00 12,9 9,2 0,0
18.06.2019 18:00:00 13,1 8,3 0,2
18.06.2019 17:00:00 12,2 9,2 0,2
18.06.2019 16:00:00 13,0 8,4 0,0
18.06.2019 15:00:00 13,1 8,4 0,0
18.06.2019 14:00:00 13,0 8,3 0,4
18.06.2019 13:00:00 12,8 8,2 0,0
18.06.2019 12:00:00 12,0 8,3 1,4
18.06.2019 11:00:00 11,6 9,6 1,4
18.06.2019 10:00:00 11,3 9,3 4,0
18.06.2019 09:00:00 10,6 9,2 1,8
18.06.2019 08:00:00 10,8 8,3 3,4
18.06.2019 07:00:00 9,7 8,7 3,8
18.06.2019 06:00:00 10,7 7,3 3,0
18.06.2019 05:00:00 12,9 5,8 0,0
18.06.2019 04:00:00 12,9 4,8 0,0
18.06.2019 03:00:00 12,6 5,9 0,0
18.06.2019 02:00:00 12,7 5,7 0,0
18.06.2019 01:00:00 12,2 6,3 0,0
18.06.2019 00:00:00 12,9 6,9 0,0
17.06.2019 23:00:00 12,7 6,7 0,0
17.06.2019 22:00:00 12,6 6,9 0,0
17.06.2019 21:00:00 12,9 7,4 0,0
17.06.2019 20:00:00 13,3 7,4 0,0
17.06.2019 19:00:00 12,8 7,7 0,0
17.06.2019 18:00:00 12,0 9,9 1,4
17.06.2019 17:00:00 12,2 10,3 1,4
17.06.2019 16:00:00 13,2 10,8 0,6
17.06.2019 15:00:00 13,2 10,5 1,2
17.06.2019 14:00:00 12,4 10,8 1,2
17.06.2019 13:00:00 12,5 10,1 1,6
17.06.2019 12:00:00 15,1 9,6 0,2
17.06.2019 11:00:00 13,2 8,9 0,0
17.06.2019 10:00:00 12,6 9,1 0,2
17.06.2019 09:00:00 11,9 8,7 0,0
17.06.2019 08:00:00 11,5 8,6 0,2
17.06.2019 07:00:00 10,1 9,9 0,4
17.06.2019 06:00:00 9,8 9,7 1,2
17.06.2019 05:00:00 9,8 9,3 1,2
17.06.2019 04:00:00 10,4 9,3 0,6
17.06.2019 03:00:00 10,9 9,0 0,2
17.06.2019 02:00:00 11,1 8,9 0,2
17.06.2019 01:00:00 10,6 9,1 0,0
17.06.2019 00:00:00 9,2 8,4 0,0
16.06.2019 23:00:00 10,3 8,9 0,0
16.06.2019 22:00:00 11,6 8,9 0,0
16.06.2019 21:00:00 13,3 8,5 0,0
16.06.2019 20:00:00 13,4 8,4 0,0
16.06.2019 19:00:00 14,0 7,5 0,0
16.06.2019 18:00:00 14,9 6,7 0,0
16.06.2019 17:00:00 13,8 10,3 1,4
16.06.2019 16:00:00 14,8 5,5 0,0
16.06.2019 15:00:00 15,3 7,0 0,2
16.06.2019 14:00:00 15,3 8,2 0,2
16.06.2019 13:00:00 16,8 7,7 0,0
16.06.2019 12:00:00 14,2 5,9 0,0
16.06.2019 11:00:00 13,6 8,2 0,0
16.06.2019 10:00:00 12,9 8,0 0,0
16.06.2019 09:00:00 12,3 7,0 0,0
16.06.2019 08:00:00 11,2 9,2 0,2
16.06.2019 07:00:00 10,7 8,7 0,0
16.06.2019 06:00:00 10,5 8,8 0,0
16.06.2019 05:00:00 10,4 9,4 0,2
16.06.2019 04:00:00 10,4 9,3 0,2
16.06.2019 03:00:00 9,3 9,3 0,0
16.06.2019 02:00:00 9,3 9,3 0,0
16.06.2019 01:00:00 9,2 9,1 0,0
16.06.2019 00:00:00 8,9 8,8 0,0
15.06.2019 23:00:00 9,4 9,0 0,0
15.06.2019 22:00:00 10,9 9,9 0,0
15.06.2019 21:00:00 11,7 10,8 2,8
15.06.2019 20:00:00 13,2 10,6 0,0
15.06.2019 19:00:00 14,1 12,6 1,6
15.06.2019 18:00:00 14,0 11,1 0,4
15.06.2019 17:00:00 14,1 11,3 0,2
15.06.2019 16:00:00 15,9 11,1 0,0
15.06.2019 15:00:00 14,9 9,8 0,0
15.06.2019 14:00:00 14,3 10,1 0,6
15.06.2019 13:00:00 15,3 9,3 0,0
15.06.2019 12:00:00 15,1 8,0 0,0
15.06.2019 11:00:00 15,2 8,6 0,0
15.06.2019 10:00:00 14,8 7,6 0,0
15.06.2019 09:00:00 14,0 8,5 0,0
15.06.2019 08:00:00 11,8 9,1 0,4
15.06.2019 07:00:00 11,7 8,9 0,4
15.06.2019 06:00:00 10,9 8,7 1,2
15.06.2019 05:00:00 10,2 8,7 1,2
15.06.2019 04:00:00 10,9 8,1 0,4
15.06.2019 03:00:00 11,9 6,9 0,0
15.06.2019 02:00:00 10,9 7,6 0,2
15.06.2019 01:00:00 11,0 7,4 0,0
15.06.2019 00:00:00 11,6 6,4 0,0
14.06.2019 23:00:00 12,1 5,8 0,0
14.06.2019 22:00:00 12,6 5,2 0,0
14.06.2019 21:00:00 12,6 5,5 0,0
14.06.2019 20:00:00 14,0 4,8 0,0
14.06.2019 19:00:00 13,8 4,8 0,0
14.06.2019 18:00:00 15,7 5,4 0,0
14.06.2019 17:00:00 14,7 6,4 0,0
14.06.2019 16:00:00 13,2 5,6 0,0
14.06.2019 15:00:00 14,9 6,5 0,0
14.06.2019 14:00:00 15,3 7,4 0,0
14.06.2019 13:00:00 13,7 6,8 0,0
14.06.2019 12:00:00 14,3 8,5 0,2
14.06.2019 11:00:00 12,1 7,8 0,2
14.06.2019 10:00:00 10,9 7,8 0,2
14.06.2019 09:00:00 11,4 7,4 0,0
14.06.2019 08:00:00 10,1 8,7 0,0
14.06.2019 07:00:00 8,7 8,5 0,0
14.06.2019 06:00:00 8,1 8,1 0,0
14.06.2019 05:00:00 8,0 7,9 0,0
14.06.2019 04:00:00 8,0 7,8 0,2
14.06.2019 03:00:00 8,1 7,9 0,4
14.06.2019 02:00:00 8,2 7,7 0,4
14.06.2019 01:00:00 8,4 7,7 0,2
14.06.2019 00:00:00 8,5 8,1 0,0
13.06.2019 23:00:00 8,5 7,3 0,0
13.06.2019 22:00:00 8,7 7,2 0,0
13.06.2019 21:00:00 - - 0,0
13.06.2019 20:00:00 - - 0,0
13.06.2019 19:00:00 - - 0,0
13.06.2019 18:00:00 - - 0,0
13.06.2019 17:00:00 - - 0,0
13.06.2019 16:00:00 - - 0,0
13.06.2019 15:00:00 - - 0,0
13.06.2019 14:00:00 - - 0,0
13.06.2019 13:00:00 - - 0,0
13.06.2019 12:00:00 - - 0,0
13.06.2019 11:00:00 - - 0,0
13.06.2019 10:00:00 - - 0,0
13.06.2019 09:00:00 - - 0,0
13.06.2019 08:00:00 - - 0,0
13.06.2019 07:00:00 - - 0,0
13.06.2019 06:00:00 - - 0,0
13.06.2019 05:00:00 - - 0,0
13.06.2019 04:00:00 - - 0,0
13.06.2019 03:00:00 - - 0,0
13.06.2019 02:00:00 - - 0,0
13.06.2019 01:00:00 - - 0,0
13.06.2019 00:00:00 - - 0,0

tt = Temperatura
td = dewpoint
rr = precipitazioni

Stazioni seguenti

WeatherPro
AMSI
MeteoEarth